[[{"header":{"parameterUnit":"m.s-1","parameterCategory":1,"la1":30.2991,"la2":30.254,"lo1":-89.0895,"lo2":-89.0444,"dy":0.0017,"dx":0.0017,"nx":28,"ny":28,"refTime":"2024-06-17T03:00:00:Z","depth":0,"parameterNumber":2,"parameterNumberName":"U-component_of_WINDS"},"data":[0,0,0,0,0,0,0,0,0,0,0,0,0,0,0,0,0,0,0,0,0,0,0,0,0,0,0,0,0,0,0,0,0,0,0,0,0,0,0,0,0,0,0,0,0,0,0,0,0,0,0,0,0,0,0,0,0,0,-2.5854,-2.5854,0,-2.5861,-2.5861,-2.5861,-2.5842,-2.5841,-2.5841,-2.584,-2.5847,-2.5848,-2.5849,0,0,0,0,0,0,0,0,0,0,0,0,0,-2.5826,-2.5826,-2.5854,-2.5854,-2.5854,-2.5861,-2.5861,-2.5861,-2.5842,-2.5841,-2.5841,-2.584,-2.5847,-2.5848,-2.5849,0,0,0,0,0,0,0,0,0,0,0,0,0,-2.5836,-2.5827,-2.5854,-2.5845,-2.5845,-2.5861,-2.5861,-2.5861,-2.5842,-2.5841,-2.584,-2.584,-2.5847,-2.5848,-2.5849,-2.5873,0,0,-2.5852,-2.5853,0,0,0,0,0,0,0,0,-2.5835,-2.5837,-2.5847,-2.5846,-2.5845,-2.5849,-2.5853,-2.5865,-2.5842,-2.5843,-2.584,-2.5839,-2.5849,-2.585,-2.5853,-2.5874,-2.5874,-2.5853,-2.5853,-2.5854,-2.5854,0,0,0,0,0,0,0,-2.5835,-2.5836,-2.5857,-2.5847,-2.5846,-2.5842,-2.5842,-2.5855,-2.5851,-2.5843,-2.5842,-2.5843,-2.5848,-2.5852,-2.5853,-2.5874,-2.5852,-2.5853,-2.5854,-2.5855,-2.5915,-2.5916,0,0,0,0,0,0,-2.5835,-2.5836,-2.5856,-2.5857,-2.5838,-2.5843,-2.5843,-2.5849,-2.5851,-2.585,-2.5843,-2.5842,-2.585,-2.5852,-2.5853,-2.5881,-2.5854,-2.5855,-2.5855,-2.5914,-2.5915,-2.5916,0,0,0,0,0,0,-2.5834,-2.5837,-2.5856,-2.5846,-2.5848,-2.5844,-2.5851,-2.585,-2.5853,-2.5851,-2.585,-2.5848,-2.585,-2.5852,-2.5868,-2.5881,-2.5855,-2.5856,-2.5913,-2.5915,-2.5916,-2.5938,0,0,0,0,0,0,-2.5834,-2.5837,-2.5846,-2.5846,-2.5849,-2.5871,-2.5852,-2.585,-2.5855,-2.5853,-2.5855,-2.5854,-2.5849,-2.5867,-2.587,-2.5882,-2.5857,-2.5912,-2.5914,-2.5915,-2.5936,-2.594,-2.5943,0,0,0,0,0,-2.5833,-2.5852,-2.5846,-2.5849,-2.586,-2.5872,-2.5873,-2.5867,-2.5856,-2.5865,-2.5864,-2.5854,-2.588,-2.5869,-2.5872,-2.5885,-2.5911,-2.5913,-2.5915,-2.5934,-2.5939,-2.5943,0,0,0,0,0,0,-2.5853,-2.5852,-2.5845,-2.5865,-2.5869,-2.5868,-2.5879,-2.5872,-2.5879,-2.5876,-2.5868,-2.5869,-2.5887,-2.5888,-2.5876,-2.5908,-2.5894,-2.5896,-2.5907,-2.5911,-2.5915,-2.5914,-2.5858,0,0,0,0,0,-2.5859,-2.5869,-2.5868,-2.5885,-2.5887,-2.5883,-2.5888,-2.5883,-2.5886,-2.5888,-2.5888,-2.5891,-2.59,-2.5906,-2.5914,-2.5936,-2.5936,-2.5947,-2.5951,-2.5954,-2.5956,-2.5967,-2.5971,-2.5923,-2.5923,-2.5923,0,0,-2.5873,-2.5874,-2.588,-2.5889,-2.5891,-2.5901,-2.5884,-2.5896,-2.5903,-2.589,-2.5905,-2.5905,-2.5909,-2.5929,-2.5937,-2.593,-2.5969,-2.5956,-2.5959,-2.5959,-2.597,-2.5974,-2.5978,-2.5925,-2.5925,-2.5924,0,0,-2.5903,-2.5905,-2.5919,-2.5922,-2.5925,-2.5923,-2.5926,-2.5927,-2.5927,-2.5943,-2.5932,-2.5942,-2.5957,-2.596,-2.5964,-2.5996,-2.5987,-2.5999,-2.6017,-2.6028,-2.6032,-2.6035,-2.6046,-2.605,-2.6001,-2.6001,-2.6002,0,-2.5919,-2.5934,-2.5928,-2.594,-2.5944,-2.5932,-2.5947,-2.595,-2.5956,-2.5959,-2.5951,-2.597,-2.5972,-2.5992,-2.6,-2.6003,-2.6007,-2.5998,-2.6032,-2.6035,-2.6038,-2.6048,-2.6052,-2.6003,-2.6003,-2.6002,-2.6002,0,-2.5954,-2.5964,-2.5976,-2.5981,-2.5987,-2.6001,-2.5997,-2.6003,-2.5998,-2.5997,-2.6013,-2.6015,-2.6023,-2.6028,-2.6023,-2.6047,-2.6042,-2.6033,-2.6018,-2.6044,-2.6053,-2.6057,-2.6005,-2.6004,-2.6004,-2.6003,0,0,-2.5995,-2.5998,-2.6002,-2.6004,-2.6008,-2.6016,-2.6029,-2.6037,-2.6042,-2.6048,-2.6058,-2.6072,-2.6064,-2.6068,-2.6064,-2.6074,-2.6098,-2.6064,-2.6064,-2.6069,-2.6124,-2.613,-2.6134,-2.6094,-2.6094,-2.6095,-2.6124,0,-2.6023,-2.6045,-2.604,-2.6062,-2.6071,-2.6061,-2.6073,-2.6076,-2.6076,-2.6084,-2.6083,-2.6093,-2.6082,-2.6084,-2.6094,-2.6093,-2.6109,-2.6091,-2.6103,-2.6103,-2.61,-2.6139,-2.6145,-2.6172,-2.6127,-2.6128,-2.6128,0,-2.6059,-2.6065,-2.6087,-2.6089,-2.6093,-2.6104,-2.611,-2.6119,-2.6123,-2.6122,-2.6127,-2.6121,-2.6134,-2.612,-2.6138,-2.6126,-2.6131,-2.6132,-2.6133,-2.6132,-2.6116,-2.6138,-2.6181,-2.6184,-2.6134,-2.6134,-2.6133,0,-2.6085,-2.6099,-2.6114,-2.6117,-2.612,-2.6127,-2.6129,-2.6132,-2.6138,-2.6144,-2.6147,-2.6156,-2.616,-2.6166,-2.6163,-2.6153,-2.6182,-2.6167,-2.618,-2.6181,-2.6185,-2.6185,-2.6227,-2.6191,-2.6191,-2.6191,-2.6191,0,-2.6116,-2.613,-2.6126,-2.6135,-2.615,-2.6145,-2.6161,-2.6162,-2.6165,-2.6174,-2.6167,-2.6176,-2.6171,-2.618,-2.6178,-2.6193,-2.6195,-2.6194,-2.6193,-2.6194,-2.6194,-2.6196,-2.6193,-2.6192,-2.6192,-2.6192,-2.6191,0,-2.6147,-2.6145,-2.616,-2.6162,-2.6163,-2.6174,-2.6176,-2.6185,-2.6184,-2.6196,-2.6199,-2.6198,-2.6208,-2.6205,-2.6217,-2.6215,-2.6234,-2.6231,-2.6232,-2.6231,-2.6243,-2.6242,-2.6287,-2.6293,-2.6254,-2.6255,-2.6255,0,-2.6166,-2.6177,-2.618,-2.6185,-2.6188,-2.6197,-2.6202,-2.6198,-2.6204,-2.621,-2.6218,-2.6227,-2.6234,-2.6251,-2.6251,-2.626,-2.6257,-2.6272,-2.6258,-2.6258,-2.6255,-2.6254,-2.6255,-2.6274,-2.6275,-2.6275,-2.6275,0,-2.62,-2.6199,-2.6207,-2.6214,-2.622,-2.6226,-2.6231,-2.6236,-2.6233,-2.624,-2.625,-2.6256,-2.6267,-2.6276,-2.6285,-2.6287,-2.628,-2.628,-2.6283,-2.6283,-2.6283,-2.6282,-2.6238,-2.6279,-2.6278,-2.6278,-2.6278,-2.6278,-2.6225,-2.6234,-2.6237,-2.6246,-2.625,-2.6255,-2.6263,-2.6263,-2.6271,-2.628,-2.6278,-2.6289,-2.6294,-2.6304,-2.6307,-2.6316,-2.631,-2.6315,-2.6316,-2.6317,-2.6318,-2.6283,-2.6318,-2.6318,-2.6318,-2.6318,-2.6318,0,-2.6258,-2.626,-2.6268,-2.6275,-2.6282,-2.6276,-2.6282,-2.6288,-2.6298,-2.6303,-2.631,-2.6322,-2.6331,-2.6333,-2.6341,-2.6348,-2.6346,-2.6351,-2.6349,-2.635,-2.6323,-2.6319,-2.6353,-2.6353,-2.6353,-2.6353,-2.6353,-2.6353,-2.6275,-2.6289,-2.6289,-2.6304,-2.6306,-2.6317,-2.6321,-2.6326,-2.6329,-2.6342,-2.635,-2.6351,-2.6355,-2.6364,-2.6372,-2.6372,-2.6376,-2.6381,-2.638,-2.6355,-2.6352,-2.6348,-2.6344,-2.6382,-2.6383,-2.6406,-2.6406,-2.6406]},{"header":{"parameterUnit":"m.s-1","parameterCategory":1,"la1":30.2991,"la2":30.254,"lo1":-89.0895,"lo2":-89.0444,"dy":0.0017,"dx":0.0017,"nx":28,"ny":28,"refTime":"2024-06-17T03:00:00:Z","depth":0,"parameterNumber":3,"parameterNumberName":"V-component_of_WINDS"},"data":[0,0,0,0,0,0,0,0,0,0,0,0,0,0,0,0,0,0,0,0,0,0,0,0,0,0,0,0,0,0,0,0,0,0,0,0,0,0,0,0,0,0,0,0,0,0,0,0,0,0,0,0,0,0,0,0,0,0,1.7848,1.7846,0,1.7636,1.7634,1.7631,1.7492,1.7491,1.749,1.7489,1.7266,1.7261,1.7256,0,0,0,0,0,0,0,0,0,0,0,0,0,1.8127,1.8123,1.7848,1.7846,1.7843,1.7636,1.7633,1.763,1.7492,1.7491,1.749,1.7489,1.7267,1.7261,1.7255,0,0,0,0,0,0,0,0,0,0,0,0,0,1.797,1.8122,1.7849,1.7749,1.7738,1.7637,1.7633,1.763,1.7492,1.7491,1.749,1.7489,1.7269,1.7262,1.7254,1.7233,0,0,1.7231,1.7227,0,0,0,0,0,0,0,0,1.7979,1.796,1.7766,1.7756,1.7743,1.7589,1.765,1.7497,1.7493,1.7585,1.7489,1.7488,1.7374,1.7358,1.732,1.7223,1.7213,1.723,1.7225,1.7222,1.722,0,0,0,0,0,0,0,1.799,1.7968,1.7764,1.7764,1.775,1.7713,1.7689,1.762,1.7489,1.7577,1.7567,1.7544,1.7367,1.7328,1.7314,1.721,1.723,1.7223,1.7219,1.7216,1.7083,1.7085,0,0,0,0,0,0,1.8017,1.7978,1.7771,1.7758,1.786,1.7709,1.7682,1.764,1.749,1.7466,1.7545,1.7538,1.7342,1.7323,1.7306,1.727,1.7222,1.7215,1.721,1.7082,1.7084,1.7085,0,0,0,0,0,0,1.8024,1.8,1.7779,1.7865,1.7834,1.7706,1.7659,1.7636,1.7597,1.7466,1.7441,1.753,1.734,1.7317,1.7253,1.7261,1.7211,1.7204,1.7081,1.7083,1.7084,1.72,0,0,0,0,0,0,1.8033,1.8004,1.7996,1.7866,1.783,1.7732,1.766,1.7633,1.7585,1.7574,1.7445,1.7422,1.7337,1.7265,1.7245,1.7249,1.7198,1.708,1.7082,1.7084,1.7195,1.7206,1.7215,0,0,0,0,0,1.8043,1.8035,1.7996,1.7972,1.7818,1.7732,1.7712,1.7616,1.7586,1.7576,1.7492,1.7426,1.7264,1.726,1.7236,1.7238,1.7079,1.7081,1.7084,1.7191,1.7204,1.7215,0,0,0,0,0,0,1.8166,1.8016,1.7971,1.7921,1.7841,1.7709,1.7693,1.7633,1.7558,1.755,1.7434,1.7405,1.7353,1.7289,1.7287,1.7209,1.7163,1.7161,1.7253,1.7264,1.7274,1.7289,1.7192,0,0,0,0,0,1.8189,1.8134,1.8005,1.7973,1.7936,1.7823,1.7782,1.7716,1.7627,1.7591,1.7502,1.7417,1.7346,1.7302,1.723,1.7186,1.7155,1.7176,1.7186,1.7195,1.7193,1.7165,1.7172,1.7093,1.7093,1.7093,0,0,1.8232,1.8143,1.8115,1.7996,1.7926,1.787,1.7794,1.7738,1.7695,1.7582,1.7516,1.7448,1.7345,1.7291,1.7263,1.7236,1.7209,1.7198,1.7206,1.7199,1.7168,1.7176,1.7182,1.7095,1.7094,1.7094,0,0,1.8282,1.8211,1.8177,1.8109,1.8005,1.793,1.7922,1.78,1.7751,1.7684,1.7598,1.7544,1.7425,1.7355,1.7304,1.7331,1.7267,1.7311,1.7361,1.7335,1.7341,1.7346,1.7354,1.7358,1.731,1.7311,1.7311,0,1.8349,1.8263,1.8166,1.8116,1.8065,1.7963,1.7927,1.7865,1.7742,1.7708,1.7681,1.7531,1.7454,1.7382,1.7389,1.7352,1.7337,1.7323,1.7348,1.7352,1.7355,1.7361,1.7365,1.7317,1.7316,1.7315,1.7315,0,1.835,1.8292,1.8276,1.8163,1.8111,1.8068,1.7962,1.7921,1.786,1.7788,1.772,1.7625,1.7532,1.7511,1.745,1.743,1.7417,1.7371,1.7321,1.737,1.7374,1.7376,1.7325,1.7323,1.7321,1.732,0,0,1.8469,1.8305,1.83,1.8248,1.8127,1.8079,1.8031,1.7942,1.7908,1.7828,1.7783,1.7686,1.7643,1.7586,1.7516,1.7493,1.7519,1.7449,1.7445,1.7464,1.749,1.7524,1.7529,1.7477,1.7477,1.7477,1.7498,0,1.85,1.841,1.8322,1.8263,1.8208,1.8112,1.8069,1.799,1.7921,1.7863,1.7786,1.7719,1.7668,1.7632,1.7606,1.7522,1.7522,1.7519,1.7432,1.743,1.7459,1.7531,1.7566,1.759,1.7499,1.7499,1.7499,0,1.8523,1.845,1.8386,1.8271,1.8244,1.8209,1.812,1.8067,1.7974,1.7925,1.7863,1.779,1.7733,1.7693,1.7611,1.7612,1.7571,1.7525,1.7523,1.7509,1.7466,1.7517,1.7596,1.7599,1.7501,1.7501,1.7501,0,1.8615,1.85,1.8447,1.8405,1.827,1.8247,1.8189,1.8095,1.8048,1.797,1.7938,1.7855,1.7809,1.7745,1.7651,1.7631,1.7579,1.7531,1.7535,1.7538,1.7526,1.7528,1.7598,1.7505,1.7505,1.7505,1.7505,0,1.8657,1.8621,1.8486,1.8453,1.841,1.8309,1.8269,1.8202,1.812,1.8071,1.7983,1.7939,1.7819,1.7759,1.7686,1.7629,1.7609,1.7567,1.7547,1.7573,1.7579,1.7543,1.7538,1.7505,1.7505,1.7505,1.7505,0,1.8751,1.8659,1.8595,1.8473,1.8442,1.8416,1.831,1.8274,1.8202,1.8141,1.8121,1.8006,1.7932,1.7834,1.7728,1.7678,1.763,1.7601,1.7662,1.765,1.766,1.766,1.7707,1.7708,1.7618,1.7619,1.7619,0,1.8783,1.8753,1.863,1.8592,1.8538,1.8478,1.843,1.833,1.8283,1.8177,1.8153,1.8073,1.8003,1.7889,1.7795,1.7714,1.768,1.7703,1.7667,1.7695,1.7678,1.7681,1.7677,1.7711,1.7712,1.7714,1.7715,0,1.8848,1.8805,1.8741,1.8661,1.8607,1.8538,1.8466,1.8439,1.8323,1.8275,1.82,1.8146,1.804,1.7961,1.7868,1.7806,1.774,1.7727,1.7723,1.7749,1.7785,1.7764,1.7684,1.7726,1.7725,1.7724,1.7723,1.7723,1.891,1.888,1.8789,1.872,1.8656,1.859,1.855,1.8475,1.8411,1.8318,1.8262,1.8189,1.8097,1.7966,1.7907,1.7847,1.7821,1.7816,1.7815,1.7815,1.7823,1.7798,1.783,1.7829,1.7829,1.7829,1.7828,0,1.897,1.8908,1.8846,1.8748,1.8694,1.8641,1.8558,1.8515,1.8453,1.8374,1.8309,1.8222,1.8145,1.8047,1.7963,1.7934,1.7902,1.7915,1.7915,1.7901,1.7851,1.7862,1.7942,1.7942,1.7942,1.7942,1.7942,1.7942,1.8995,1.894,1.8887,1.8799,1.8736,1.8666,1.8623,1.8562,1.8498,1.8406,1.8343,1.8281,1.8193,1.8103,1.803,1.8002,1.7975,1.7997,1.7961,1.7915,1.7905,1.7895,1.7905,1.7992,1.7992,1.8015,1.8015,1.8016]}]]